Wind_Speed
39 39 41 44 47 48 48 49 51 53 55 56 58 58 56 54 53 53 53 53 52 50 50 51 49 47 45 42 41 41 42 44 45 44 43 43 45 47 47 46 44 42
41 40 41 43 45 48 48 49 50 52 56 58 59 60 58 56 56 56 56 56 55 52 50 48 47 46 46 45 46 46 47 47 48 48 48 49 49 50 48 46 45 42
43 42 44 44 44 47 48 49 50 52 56 59 62 63 62 60 60 61 61 60 59 57 55 52 49 48 47 48 50 50 51 52 53 55 54 53 51 50 49 47 45 42
45 45 46 46 45 46 47 48 50 52 54 57 61 63 64 64 64 66 66 65 63 62 62 60 57 55 53 54 55 56 57 57 57 56 55 53 52 50 49 47 44 41
46 47 48 49 48 47 48 48 47 49 51 55 59 61 63 65 66 67 66 66 65 64 64 64 62 60 59 59 60 59 58 56 54 52 51 51 51 49 48 46 43 41
45 45 46 50 51 50 50 51 50 50 52 54 57 59 62 64 66 67 67 67 66 64 62 61 60 60 59 59 58 56 54 53 51 49 49 49 49 48 47 45 42 40
42 45 46 50 52 52 52 54 54 55 55 56 58 59 60 62 64 64 64 64 63 62 61 60 58 58 57 56 56 54 53 51 50 49 49 49 49 48 46 44 42 40
40 45 49 52 52 52 52 54 56 56 57 58 57 57 56 57 58 59 59 59 59 59 59 57 56 55 54 54 53 52 51 50 49 49 49 49 49 47 45 43 41 38
40 42 47 49 48 50 52 53 55 56 56 55 54 53 52 51 52 53 53 54 55 55 55 54 52 51 50 49 49 48 47 47 48 49 49 48 46 44 42 40 38 36
41 41 43 43 43 46 49 52 54 54 54 53 51 50 48 48 49 49 50 51 51 51 50 49 48 46 45 44 43 43 44 45 46 46 45 44 42 40 38 37 36 35
41 40 41 42 41 41 44 47 49 50 50 49 49 48 48 48 49 50 50 51 50 49 47 45 44 42 40 39 38 39 40 40 41 41 40 39 38 37 37 36 35 35
43 42 42 42 42 41 42 44 46 47 48 48 48 48 48 48 49 49 50 49 48 47 45 44 42 40 37 36 36 37 38 38 38 38 37 36 35 36 36 35 35 33
45 44 44 43 42 43 44 45 47 48 48 48 47 46 45 45 46 47 47 47 46 45 44 42 39 37 36 36 38 38 37 36 36 35 34 34 34 34 34 34 33 31
45 44 45 44 42 42 44 45 46 46 44 43 43 42 42 43 44 45 45 44 44 43 41 39 37 37 37 37 37 35 33 33 33 33 34 34 33 33 33 33 32 29
46 47 48 47 43 40 42 45 46 45 44 41 40 40 40 41 43 43 43 42 43 43 40 37 37 36 35 34 34 33 33 34 34 35 34 34 33 33 34 33 31 29
48 49 50 51 48 42 41 43 44 44 43 41 39 40 41 42 43 43 44 45 45 43 38 37 36 35 35 35 36 36 37 37 36 36 35 34 34 35 35 34 33 32
42 44 48 51 52 48 44 45 45 43 41 40 40 40 41 42 43 44 46 48 46 42 39 39 39 39 39 40 41 41 40 39 38 38 37 36 37 38 37 36 36 36
38 40 43 46 50 50 48 47 46 45 44 42 42 42 42 42 43 45 48 49 46 42 41 42 42 43 44 44 44 44 43 41 41 40 40 40 41 41 40 39 39 40
40 40 41 42 45 47 48 48 47 47 47 46 45 45 46 45 45 47 49 51 48 46 46 47 47 47 46 45 45 45 44 44 43 43 43 44 44 44 42 42 43 44
44 43 42 41 42 43 44 46 46 47 48 48 48 49 49 48 48 48 49 50 49 49 49 50 49 49 47 46 46 46 46 46 45 45 46 46 46 45 45 45 46 46
47 46 43 44 45 44 44 46 47 47 48 49 50 51 50 50 50 49 49 49 49 51 51 51 51 50 49 48 47 47 48 48 48 48 48 47 47 46 47 47 47 48
48 48 46 47 49 47 45 47 47 48 49 51 51 51 50 50 51 50 48 48 49 50 51 53 54 53 51 51 50 51 51 50 50 50 49 48 48 48 48 48 48 49
45 47 48 48 49 48 47 46 46 48 51 52 51 50 48 47 48 50 50 50 51 50 51 53 55 55 53 53 53 53 52 51 50 50 49 48 49 50 50 49 50 50
46 48 50 49 49 50 49 48 48 50 52 52 51 49 46 46 49 51 52 54 54 53 53 54 55 55 54 53 52 52 52 52 52 51 50 50 51 51 51 51 51 52
49 51 53 51 49 49 49 50 52 52 51 51 50 48 47 50 54 56 57 57 56 54 54 54 54 55 54 54 54 54 54 54 53 53 52 51 51 52 52 53 54 55
46 50 52 52 51 50 49 50 52 52 51 49 48 49 51 54 59 61 62 60 57 55 54 54 53 53 53 53 53 53 53 53 53 53 52 51 52 53 54 55 57 59
Wind_Direction
252 250 246 242 241 242 244 246 245 245 248 250 252 252 253 254 253 253 255 256 259 263 267 271 273 274 275 272 270 272 275 279 284 288 290 292 295 297 299 300 300 300
253 250 249 245 243 244 246 249 250 248 247 249 250 251 252 252 251 252 254 255 258 261 265 269 271 272 272 270 268 269 273 277 283 286 288 290 291 293 296 298 299 300
252 247 249 248 245 246 247 249 251 252 251 250 250 250 251 251 251 252 254 256 258 260 263 265 268 269 269 269 268 269 273 276 280 283 285 286 288 291 293 296 299 299
251 248 247 248 247 246 246 247 250 252 253 253 252 252 252 253 254 255 256 258 259 260 262 264 266 268 268 269 271 273 277 279 280 281 281 283 285 288 292 295 298 299
251 252 248 245 245 244 243 244 246 249 250 251 252 252 253 254 256 258 260 261 262 262 263 264 266 269 270 272 275 278 280 281 280 279 280 282 284 287 291 295 297 298
252 254 249 244 242 242 243 243 244 248 250 251 253 254 256 257 258 260 262 263 265 266 267 268 269 271 273 275 276 278 279 280 279 278 279 281 284 287 291 293 295 295
254 252 249 246 243 241 243 245 246 250 253 254 257 259 260 261 261 262 263 265 267 268 270 271 272 274 274 275 275 275 277 279 278 277 278 281 285 288 290 291 292 292
248 247 246 246 245 243 243 244 246 249 252 255 257 260 262 263 263 263 264 266 268 269 270 272 273 274 275 274 275 276 278 278 277 277 279 282 285 286 288 288 289 289
237 244 246 247 247 245 244 245 245 247 250 253 256 259 261 262 263 263 264 265 266 267 269 270 271 273 274 275 275 276 276 276 276 278 280 282 284 285 285 286 286 284
235 242 245 244 245 246 246 246 247 248 250 252 254 256 257 258 260 261 262 263 265 266 267 268 269 271 272 272 274 275 275 276 278 280 281 282 283 284 284 284 283 281
233 238 238 236 238 241 244 245 246 247 248 249 250 252 254 255 257 259 261 262 263 264 264 264 266 267 268 270 273 275 276 277 278 279 280 282 283 283 283 283 281 278
232 234 233 232 235 238 243 247 248 249 250 250 251 252 253 254 256 257 258 260 261 262 262 262 263 265 267 270 272 273 275 276 277 278 281 283 283 283 283 281 278 276
232 233 233 233 235 239 244 248 251 253 254 253 253 253 254 255 256 256 257 259 260 260 259 261 263 265 268 270 271 272 274 274 276 279 281 282 282 282 281 279 276 276
232 235 234 233 234 237 242 248 252 255 256 255 254 255 256 256 256 257 258 258 257 256 256 259 263 265 268 269 270 271 272 273 276 280 282 282 281 281 280 278 276 277
234 236 236 235 236 238 241 245 251 257 260 259 258 257 256 256 256 256 255 253 252 252 256 260 262 264 265 266 266 268 270 274 278 281 282 282 281 281 281 278 276 278
239 241 241 239 239 240 242 245 250 257 260 259 257 256 255 254 255 254 251 249 250 253 256 259 261 263 265 265 267 269 271 275 279 280 281 281 281 282 282 280 277 280
242 245 246 244 240 241 247 251 253 256 257 254 252 252 253 254 254 253 250 249 250 253 256 258 261 265 267 268 269 270 271 274 277 278 278 280 282 284 285 283 281 283
236 240 244 247 245 246 250 252 253 255 255 252 251 251 252 253 254 252 250 250 251 252 255 258 262 267 269 271 270 269 271 273 275 276 277 279 282 285 287 287 286 287
229 234 240 245 248 250 251 251 252 255 256 256 255 255 254 254 254 252 251 251 252 252 254 258 263 268 271 271 269 269 271 273 275 277 278 281 284 287 288 290 289 289
225 231 236 239 244 250 252 252 253 255 258 260 259 258 257 254 253 253 252 253 254 254 256 260 265 269 270 269 268 269 271 274 276 278 280 283 286 288 289 291 290 289
222 229 234 236 241 248 251 253 256 257 258 259 258 257 257 256 254 253 253 254 257 258 260 262 265 267 268 267 268 270 272 275 277 279 281 284 285 286 288 289 288 288
224 231 236 237 240 244 249 252 255 255 255 255 255 256 258 258 255 251 251 254 260 264 265 265 266 266 268 269 270 272 274 276 277 279 281 282 283 285 287 287 286 287
228 234 236 238 240 244 248 250 250 251 251 252 254 256 258 256 252 249 251 257 262 264 266 267 269 270 271 273 274 275 275 276 277 279 280 281 282 284 285 285 286 287
232 238 238 238 242 245 246 246 246 248 251 251 252 254 253 250 248 250 254 258 260 262 264 268 271 273 274 274 274 274 275 276 277 278 279 280 281 283 284 284 284 285
236 242 242 240 241 242 242 244 246 248 250 252 252 251 248 246 249 254 256 258 260 262 265 268 271 272 273 273 273 273 274 275 276 277 279 280 281 282 282 282 283 284
237 242 244 243 240 239 241 245 247 247 247 248 249 250 250 251 255 258 259 260 262 264 266 267 268 270 271 273 274 275 275 276 276 278 279 280 280 281 281 281 283 284
Height
10665 10666 10667 10668 10669 10671 10674 10676 10678 10680 10682 10683 10685 10686 10688 10689 10690 10690 10691 10691 10691 10691 10691 10691 10691 10692 10694 10694 10693 10693 10693 10693 10693 10692 10692 10691 10691 10690 10689 10688 10687 10687
10661 10663 10662 10663 10664 10665 10668 10670 10672 10674 10676 10677 10679 10682 10684 10685 10686 10686 10686 10687 10688 10689 10689 10689 10689 10689 10689 10690 10690 10690 10690 10690 10689 10688 10687 10687 10686 10686 10685 10684 10684 10682
10656 10658 10657 10658 10659 10660 10662 10664 10666 10668 10670 10672 10673 10676 10678 10680 10681 10681 10681 10683 10684 10686 10686 10686 10686 10686 10686 10685 10685 10686 10687 10686 10686 10684 10683 10683 10682 10681 10680 10680 10680 10678
10648 10650 10652 10653 10654 10655 10657 10659 10661 10663 10665 10667 10667 10669 10672 10674 10675 10675 10676 10678 10680 10681 10682 10682 10682 10682 10683 10682 10680 10681 10682 10682 10682 10680 10680 10679 10678 10677 10676 10675 10675 10673
10641 10643 10645 10647 10648 10650 10653 10655 10658 10660 10661 10662 10662 10663 10666 10668 10669 10670 10672 10674 10675 10676 10676 10677 10677 10677 10678 10677 10676 10676 10677 10677 10677 10676 10676 10675 10674 10673 10672 10671 10670 10669
10636 10636 10637 10639 10642 10645 10648 10651 10653 10654 10655 10656 10657 10658 10660 10661 10663 10665 10667 10668 10668 10669 10670 10671 10671 10672 10672 10672 10671 10671 10671 10671 10672 10672 10672 10671 10670 10669 10668 10667 10666 10664
10629 10628 10630 10632 10635 10639 10642 10646 10648 10649 10649 10650 10651 10652 10654 10655 10657 10659 10660 10661 10662 10662 10663 10664 10665 10665 10666 10666 10665 10665 10666 10666 10666 10666 10666 10666 10666 10665 10664 10663 10662 10660
10621 10621 10624 10627 10630 10634 10637 10640 10643 10643 10643 10644 10645 10647 10648 10649 10651 10653 10654 10655 10655 10656 10656 10658 10659 10659 10660 10660 10659 10659 10660 10660 10660 10661 10661 10661 10661 10661 10659 10658 10657 10656
10615 10617 10619 10623 10626 10629 10632 10634 10637 10637 10638 10639 10640 10641 10642 10644 10646 10647 10648 10649 10649 10650 10651 10652 10653 10654 10654 10654 10653 10654 10654 10654 10654 10655 10656 10656 10656 10656 10655 10653 10652 10651
10612 10614 10616 10619 10622 10624 10626 10628 10630 10632 10633 10634 10634 10635 10637 10639 10640 10642 10643 10644 10644 10644 10645 10646 10647 10648 10649 10649 10649 10649 10649 10649 10649 10649 10650 10651 10651 10650 10650 10649 10648 10647
10610 10611 10613 10616 10617 10619 10621 10623 10625 10626 10628 10628 10629 10631 10633 10634 10635 10636 10638 10639 10639 10639 10640 10640 10641 10643 10644 10644 10644 10644 10644 10644 10644 10644 10645 10646 10646 10645 10644 10644 10643 10642
10607 10609 10611 10613 10614 10616 10617 10619 10621 10622 10623 10623 10624 10626 10628 10629 10630 10632 10633 10634 10634 10634 10634 10634 10636 10638 10639 10639 10639 10639 10639 10639 10640 10640 10641 10641 10641 10640 10639 10639 10638 10637
10605 10607 10609 10611 10612 10614 10615 10617 10618 10618 10619 10620 10620 10622 10623 10624 10626 10627 10628 10629 10629 10628 10627 10629 10632 10633 10634 10634 10634 10634 10635 10635 10635 10636 10636 10636 10636 10635 10635 10633 10632 10632
10603 10605 10606 10608 10610 10612 10613 10615 10615 10615 10616 10616 10616 10617 10618 10620 10621 10622 10623 10623 10622 10621 10623 10625 10627 10628 10628 10628 10628 10629 10630 10630 10631 10632 10632 10632 10631 10631 10630 10629 10628 10628
10602 10602 10603 10605 10607 10609 10610 10611 10613 10612 10612 10612 10612 10612 10614 10615 10616 10617 10618 10617 10614 10615 10619 10622 10622 10623 10623 10623 10623 10624 10625 10626 10626 10627 10627 10627 10627 10627 10626 10625 10625 10625
10600 10600 10600 10602 10604 10604 10605 10607 10608 10608 10607 10607 10607 10608 10609 10610 10611 10612 10612 10610 10609 10612 10616 10618 10617 10618 10619 10619 10619 10619 10620 10621 10621 10621 10622 10623 10622 10623 10622 10622 10621 10621
10596 10596 10595 10596 10598 10599 10599 10600 10602 10603 10602 10602 10603 10604 10605 10605 10606 10606 10605 10603 10605 10609 10612 10612 10613 10613 10614 10614 10614 10614 10615 10615 10615 10616 10617 10618 10618 10618 10618 10618 10617 10616
10592 10590 10589 10590 10591 10592 10593 10594 10595 10596 10596 10596 10598 10600 10600 10600 10600 10600 10599 10599 10602 10606 10606 10606 10607 10608 10608 10608 10608 10608 10609 10610 10610 10610 10612 10613 10613 10613 10613 10612 10611 10610
10589 10587 10585 10585 10585 10585 10586 10588 10589 10590 10589 10591 10593 10594 10595 10595 10595 10594 10594 10594 10598 10600 10599 10599 10601 10601 10602 10603 10603 10603 10603 10604 10604 10605 10605 10607 10607 10608 10607 10606 10605 10604
10585 10583 10582 10581 10581 10581 10581 10582 10584 10584 10583 10584 10586 10587 10588 10589 10589 10588 10588 10589 10592 10593 10592 10593 10595 10595 10597 10597 10598 10598 10598 10598 10599 10599 10599 10600 10601 10601 10601 10600 10599 10597
10578 10578 10578 10577 10577 10578 10577 10577 10578 10579 10578 10577 10577 10578 10581 10582 10583 10583 10583 10584 10585 10585 10585 10587 10588 10589 10590 10591 10592 10593 10592 10592 10592 10593 10594 10594 10594 10594 10594 10593 10592 10590
10573 10573 10573 10573 10573 10574 10573 10572 10573 10573 10572 10570 10571 10572 10575 10577 10577 10577 10578 10578 10578 10578 10578 10579 10580 10582 10584 10585 10586 10587 10587 10587 10586 10586 10588 10588 10587 10587 10587 10586 10585 10584
10569 10568 10568 10569 10570 10570 10569 10568 10568 10567 10565 10565 10566 10568 10571 10571 10571 10571 10572 10572 10572 10572 10572 10571 10572 10575 10578 10579 10579 10580 10580 10580 10579 10581 10582 10582 10580 10580 10580 10579 10578 10577
10562 10561 10562 10564 10565 10565 10565 10564 10562 10560 10559 10561 10562 10564 10566 10566 10565 10565 10565 10565 10565 10566 10567 10566 10566 10568 10571 10572 10572 10572 10572 10572 10572 10574 10576 10575 10574 10573 10572 10572 10571 10570
10555 10553 10555 10559 10560 10560 10559 10558 10556 10555 10555 10556 10557 10559 10561 10560 10557 10557 10557 10558 10560 10562 10563 10563 10562 10562 10562 10563 10564 10564 10565 10565 10565 10567 10568 10568 10567 10566 10565 10564 10563 10562
10550 10548 10550 10553 10554 10554 10554 10553 10551 10550 10551 10551 10551 10552 10554 10553 10550 10549 10549 10551 10555 10557 10558 10557 10557 10556 10556 10555 10555 10555 10556 10556 10557 10559 10560 10560 10559 10558 10557 10556 10555 10555